Location: Bourg-d�Oueil
(42.8588°N, 0.4991°E)
Time: 17:13:40
(UTC+00:00)

Cosmos 1346 Rocket - Pass Details

Date: 16 June 2021
Orbit: 526 x 551 km, 81.2° (Epoch: 04 August)

Event Time Altitude Azimuth Distance (km) Brightness Sun altitude
Exits shadow 22:18:23 37° 96° (E) 857 3.5 -19.8°
Maximum altitude 22:18:27 37° 94° (E) 857 3.5 -19.8°
Drops below altitude 10° 22:22:09 10° 26° (NNE) 1,825 6.0 -20.1°
Sets 22:24:26 0° 19° (NNE) 2,727 7.1 -20.3°
